Location: Medlow Airstrip Trail, Medlow Bath NSW 2780, Australia
(33.6682°S, 150.3233°E)
Time: 23:35:58
(UTC+11:00)

LightSail 2 - Pass Details

Date: 24 August 2019
Orbit: 707 x 722 km, 24.0° (Epoch: 22 October)

Event Time Altitude Azimuth Distance (km) Brightness Sun altitude
Exits shadow 05:00:15 - 337° (NNW) 2,827 8.0 -18.9°
Reaches altitude 10° 05:03:44 10° 7° (N) 2,192 7.8 -18.2°
Maximum altitude 05:05:00 11° 21° (NNE) 2,138 7.9 -17.9°
Drops below altitude 10° 05:06:16 10° 35° (NE) 2,198 8.2 -17.7°
Sets 05:10:48 0° 71° (ENE) 3,128 10.0 -16.7°
